Location: Newark
(13.8625°N, 100.5144°E)
Time: 18:56:50
(UTC+00:00)

LightSail 2 - Pass Details

Date: 14 May 2021
Orbit: 685 x 700 km, 24.0° (Epoch: 11 June)

Event Time Altitude Azimuth Distance (km) Brightness Sun altitude
Exits shadow 21:51:50 - 297° (WNW) 2,322 7.4 -14.3°
Reaches altitude 10° 21:52:20 10° 298° (WNW) 2,133 7.3 -14.1°
Maximum altitude 21:57:18 59° 18° (NNE) 790 5.6 -13.0°
Drops below altitude 10° 22:02:14 10° 98° (E) 2,123 8.6 -11.9°
Sets 22:04:40 0° 102° (ESE) 3,036 9.4 -11.4°
